Showing default

ESSA 4 (TOS-B), 2657

Orbit data source: Space-Track

ESSA 4 (TOS-B), 2657 is a payload satellite owned by ESSA (US) in SSO that was launched on Thu, 26 Jan 1967 UTC via a THOR DELTA E launch vehicle from the Air Force Western Test Range (AFWTR). Payload-class satellites include a variety of spacecraft equipped with specific instruments for various scientific and technological missions. These include communications satellites like Starlink; space stations such as the ISS; scientific satellites like the Hubble; Earth observation satellites from companies like Planet Labs, Umbra, and HawkEye 360; GPS; miniature CubeSats for education and research; and military/defense satellites.

Loading next visibility...
Identifier
2657, 1967-006A
Orbit
SSO
Country
Flag of USUS
Related business
Manufacturer
RCA/East Windsor
Mission
Non-operational spacecraft
Bus & Motor
TIROS I, Unknown motor
Mass
132 kg wet, 132 kg dry
Launch date (UTC)
1967-01-26 (59 years ago)
Launch vehicle
THOR DELTA E
Launch site
Air Force Western Test Range (AFWTR)
Object type
Payload
Rocket body
Debris
Shape & HBR
Unknown
Radar Cross Section
Medium (>0.1 m² and <1 m²)

Expand to show TLE details & history
Last TLE update: 17 hours ago

TLE from 17 hours ago
0 ESSA 4 (TOS-B)
1  2657U 67006A   26035.51259007 -.00000048  00000-0  73573-5 0  9997
2  2657 102.0872 227.4526 0073064 179.2044 195.2655 12.69888767735704
Epoch: 2026-02-04T12:18Z
TLE epoch observation values (Epoch: 2026-02-04T12:18:07.782Z)
Latitude
13.90217°
Longitude
-94.78135°
Altitude
1,438.994 km
Speed
7.118 km/s
True Right ascension
14h 57m 43s
True Declination
13° 49' 45"
Sunlit
Object was in daylight at epoch
Visualization orbit readout
Latitude
Unknown
Longitude
Unknown
Altitude
Unknown
Speed
Unknown
Apparent Right ascension
Unknown
Apparent Declination
Unknown
Sunlit
N/A
Visualization observer readout
Local Sidereal Time
07:15:38
Azimuth
Unknown
Elevation
Unknown
Doppler factor
Unknown
Orbital elements
Apogee altitude
1,436.618 km
Perigee altitude
1,323.25 km
Semi-major axis
7,758.071 km
Eccentricity
0.00731
Inclination
102.0872°
RAAN
227.4526°
Arg. of periapsis
179.2044°
True anomaly
195.04698°
Mean anomaly
195.2655°
Eccentric anomaly
195.15605°
Mean motion
3.17623 °/min
Orbital period
113.34 mins
BSTAR
0.0000073573
Loading maneuver chart data...
Computing Atmospheric mass density...
Loading historical data...
Loading historical data...
Loading historical data...
Loading historical data...
Loading historical data...
Loading historical data...
Loading historical data...
Other satellites on launch #6 in the year 1967 (1967-01-26 UTC)

Documentation

Showing up to 5 results
|